Preview of NWS' New Version of Forecast
This preview is not operational and should not be used for support decisions.

Regional Weather Roundup (RWR)

Issued by National Weather Service (NWS)

                            
000
ASUS43 KTOP 220359
RWRKS 

WEATHER ROUNDUP FOR KANSAS
NATIONAL WEATHER SERVICE GOODLAND KS
1000 PM CST THU FEB 21 2019

NOTE:  "FAIR" INDICATES FEW OR NO CLOUDS BELOW 12,000 FEET WITH NO
SIGNIFICANT WEATHER AND/OR OBSTRUCTIONS TO VISIBILITY.

KSZ001>006-013>018-027>032-041>047-220500-
NORTHWEST KANSAS
  
CITY           SKY/WX    TMP DP  RH WIND       PRES   REMARKS
GOODLAND       CLOUDY    33  30  88 E17       29.92S WCI  22          
HAYS           CLEAR     31  29  92 E12       30.04R WCI  22          
HILL CITY      CLOUDY    32  27  81 E12       30.03R WCI  23          
RUSSELL        CLEAR     31  30  96 E12       30.05R WCI  22          
$$

KSZ061>065-074>080-084>089-220500-
SOUTHWEST KANSAS
  
CITY           SKY/WX    TMP DP  RH WIND       PRES   REMARKS
DODGE CITY     CLEAR     35  26  69 SE12      29.97R WCI  27          
GARDEN CITY    CLEAR     32  25  75 SE12      29.93R WCI  23          
GREAT BEND     CLEAR     35  31  85 E13       30.04R WCI  26          
LIBERAL        CLOUDY    40  25  55 SE12      29.93R WCI  33          
$$

KSZ066>073-081>083-090>101-220500-
SOUTHEAST KANSAS
  
CITY           SKY/WX    TMP DP  RH WIND       PRES   REMARKS
CHANUTE        CLOUDY    35  27  72 NE9       30.14R                  
COFFEYVILLE    CLOUDY    35  28  75 NE7       30.12R                  
HUTCHINSON     CLEAR     36  30  79 E10       30.07R WCI  28          
MEDICINE LODGE   N/A     37  31  78 E8        30.04R                  
NEWTON         CLEAR     32  27  81 E9        30.10R                  
PARSONS        CLOUDY    36  29  75 VRB5      30.13S                  
WICHITA INTL   CLEAR     38  30  73 E9        30.08R                  
WICHITA JABRA  PTCLDY    37  26  64 E9        30.09R                  
WINFIELD       CLOUDY    39  29  67 E7        30.09R                  
$$

KSZ007>012-019>026-033>040-048>060-102>105-220500-
NORTHEAST KANSAS
  
CITY           SKY/WX    TMP DP  RH WIND       PRES   REMARKS
CONCORDIA      CLOUDY    33  26  75 E9        30.14R                  
EMPORIA        CLOUDY    32  26  78 E12       30.12R WCI  23          
LAWRENCE       CLOUDY    33  24  69 E9        30.20R                  
MANHATTAN      CLOUDY    35  25  66 E9        30.15R                  
OLATHE IND     CLEAR     31  24  75 E8        30.19R                  
OLATHE EXE     CLEAR     31  22  69 E9        30.19R                  
SALINA         PTCLDY    34  27  75 E9        30.13R                  
TOPEKA BILLARD CLOUDY    34  24  67 E8        30.19R                  
TOPEKA FORBES  CLOUDY    34  24  67 E12       30.16R WCI  25          
$$